Location: Bethnal Green
(51.5167°N, 0.0500°W)
Time: 04:04:01
(UTC+00:00)

Daily predictions for brighter satellites

Satellite Brightness Start Highest point End
(mag) Time Altitude Azimuth Time Altitude Azimuth Time Altitude Azimuth
Cosmos 2219 Rocket 4.4 00:03:41 10° W 00:08:14 24° NW 00:12:47 10° NNE
ATLAS CENTAUR R/B 3.8 00:07:30 11° SW 00:13:00 78° SE 00:28:41 10° ENE
Cosmos 1825 3.9 00:13:02 15° SE 00:15:03 23° E 00:18:03 10° NE
Cosmos 1812 Rocket 3.9 00:12:53 10° NNW 00:17:07 52° W 00:19:25 25° SSW
Cosmos 990 Rocket 4.1 00:13:21 10° NNW 00:18:36 77° ENE 00:22:38 17° SSE
Cosmos 1408 3.4 00:19:18 24° SSE 00:21:02 41° E 00:24:32 10° NNE
SL-16 R/B 2.2 00:19:56 19° SSW 00:24:06 88° NW 00:29:49 10° NNE
Cosmos 1656 Rocket 4.2 00:18:28 10° NNW 00:24:08 61° NE 00:29:45 10° SE
Cosmos 2221 4.0 00:20:49 10° N 00:24:42 32° ENE 00:28:23 11° SE
Cosmos 405 Rocket 3.9 00:23:36 20° SE 00:25:25 31° E 00:28:43 10° NNE
USA 229 DEB 4.0 00:22:35 21° S 00:26:39 49° ESE 00:33:13 10° NE
X-37B 2.9 00:28:46 12° ESE 00:28:46 12° ESE 00:29:13 10° ESE
USA 229 4.0 00:22:43 21° S 00:26:46 49° ESE 00:33:19 10° NE
Cosmos 2237 Rocket 3.4 00:22:02 10° WSW 00:27:18 39° NW 00:32:35 10° NNE
Cosmos 1898 Rocket 3.6 00:26:37 10° NNW 00:31:54 79° ENE 00:36:11 16° SSE
Cosmos 1937 Rocket 4.0 00:26:51 10° NNW 00:32:10 62° ENE 00:37:19 11° SE
Cosmos 2369 Rocket 2.2 00:28:33 10° NNW 00:34:19 83° WSW 00:38:58 16° SSE
NOSS 3-1 (C) 3.3 00:31:11 19° SSW 00:35:12 75° SE 00:41:41 10° NE
ATLAS 3B R/B 4.3 00:30:06 10° W 00:36:09 35° NNW 00:42:27 10° NE
SJ 16-02 2.3 00:34:08 10° NW 00:38:04 33° WSW 00:40:01 22° SSW
FALCON 9 DEB 3.3 00:35:12 10° W 00:38:20 63° N 00:41:27 10° E
YAOGAN 11 4.5 00:35:34 17° SSE 00:38:56 64° ENE 00:43:25 10° N
Cosmos 1356 3.6 00:37:29 29° S 00:38:59 61° E 00:42:21 10° NNE
CREW DRAGON DEMO-1 DEB 4.0 00:40:05 20° ESE 00:40:05 20° ESE 00:41:20 10° E
GP-B 3.8 00:34:58 10° N 00:39:13 44° W 00:41:51 21° SW
NOSS 2-3 (E) 3.6 00:42:31 23° SSW 00:45:08 73° SE 00:50:10 10° NE
NOSS 3-1 (A) 3.5 00:42:41 22° SSW 00:46:13 57° SE 00:52:29 10° NE
USA 215 3.4 00:39:45 10° ENE 00:46:17 76° NNW 00:52:49 10° WSW
Cosmos 2263 4.2 00:42:15 10° NNW 00:47:59 86° WSW 00:53:06 13° SSE
Cosmos 1825 Rocket 3.6 00:45:41 24° SSW 00:48:22 75° WNW 00:52:50 10° N
ATLAS 5 CENTAUR R/B 3.7 00:48:30 10° SE 00:49:50 11° ESE 00:51:12 10° E
CZ-4 R/B 4.3 00:45:56 10° NNE 00:50:29 50° E 00:53:33 20° SSE
Cosmos 1932 4.4 00:47:03 10° NW 00:53:17 76° SW 00:59:28 10° SSE
Meteor 2-2 Rocket 4.5 00:48:57 10° NNW 00:55:02 82° ENE 01:00:06 15° SSE
FALCON 9 DEB 3.1 00:52:21 10° WNW 00:55:27 69° N 00:58:32 10° E
CZ-3B R/B 3.4 00:43:28 10° W 00:56:16 65° N 00:59:51 10° E
Cosmos 1606 3.7 00:57:13 10° N 01:00:53 42° ENE 01:04:13 12° SE
NOSS 8 (H) 4.5 01:00:24 30° S 01:01:33 48° SE 01:04:25 10° NE
FALCON 9 DEB 3.2 00:59:06 10° WNW 01:02:13 68° N 01:05:20 10° E
Helios 1A 2.9 01:00:06 20° SSE 01:02:59 87° WSW 01:07:14 10° NNW
Cosmos 468 Rocket 4.0 01:00:57 21° SSW 01:04:28 82° ESE 01:09:44 10° NNE
FALCON 9 DEB 3.1 01:02:35 10° WNW 01:05:42 72° N 01:08:48 10° E
SL-16 R/B 3.0 01:00:51 10° SE 01:06:55 62° ENE 01:13:02 10° NNW
Cosmos 372 Rocket 4.3 01:01:55 10° NNW 01:07:11 69° ENE 01:12:25 10° SSE
Cosmos 858 Rocket 4.5 01:04:16 10° NNW 01:09:34 76° WSW 01:14:05 14° SSE
USA 290 4.5 01:11:15 11° SE 01:13:05 17° ESE 01:15:14 10° ENE
Cosmos 1953 Rocket 3.7 01:10:29 21° SSW 01:13:17 63° WNW 01:17:41 10° N
Lacrosse 4 Rocket 2.0 01:09:18 10° NNW 01:13:22 55° NE 01:17:21 10° SE
CENTAUR R/B 4.5 01:09:24 10° NW 01:16:29 42° NNE 01:24:31 10° E
Cosmos 2098 Rocket 3.5 01:15:08 17° S 01:19:14 67° E 01:23:31 10° NNE
BREEZE-M R/B 4.1 01:18:11 16° SSE 01:19:25 18° SE 01:22:32 10° E
Cosmos 1763 Rocket 3.5 01:15:44 19° SSW 01:19:25 80° WNW 01:24:36 10° NNE
Cosmos 1437 Rocket 2.8 01:16:06 10° NNW 01:19:56 60° W 01:22:18 21° S
Resurs 1-4 Rocket 2.8 01:14:50 10° NNE 01:20:00 47° E 01:24:23 14° S
USA 267 4.3 01:19:19 17° SSW 01:22:28 24° SW 01:27:39 10° WNW
Cosmos 1892 3.8 01:21:02 17° SW 01:23:28 34° WNW 01:27:03 10° N
SL-4 R/B 1.7 01:20:58 10° W 01:24:47 86° N 01:28:21 10° E
NOSS 2-3 (D) 4.0 01:22:26 13° WSW 01:26:09 66° NW 01:31:19 10° NE
Cosmos 1943 Rocket 3.7 01:23:04 10° NW 01:26:56 20° W 01:29:31 15° SW
Cosmos 1842 Rocket 3.6 01:25:43 10° NNW 01:30:02 66° W 01:33:14 18° S
NPP 4.4 01:25:57 10° NNE 01:31:10 47° E 01:35:57 12° S
ADEOS II 3.6 01:26:51 10° NNE 01:31:28 30° E 01:36:03 10° SSE
EO 1 Del DPAF 4.4 01:29:03 10° N 01:32:23 32° WNW 01:34:57 15° WSW
Meteor 2-8 Rocket 4.5 01:27:15 10° NNW 01:33:24 75° W 01:38:53 13° S
Lacrosse 5 rocket 2.4 01:30:04 10° WNW 01:33:30 41° NNE 01:36:57 10° E
USA 306 4.1 01:32:05 18° S 01:34:14 27° SE 01:37:48 10° E
FALCON 9 DEB 3.3 01:31:47 10° WNW 01:35:04 46° SSW 01:38:21 10° SE
Cosmos 921 Rocket 3.3 01:32:38 18° S 01:35:39 58° ESE 01:39:47 10° NNE
Exosat Rocket 3.9 01:30:27 16° SW 01:35:41 74° WNW 01:40:50 10° NNE
Cosmos 1943 3.2 01:33:25 17° SSW 01:37:51 90° NNW 01:43:33 10° NNE
CZ-2D R/B 2.3 01:33:35 10° NNE 01:38:47 64° ESE 01:43:15 14° S
MOZ.5/SAFIR/RUBIN 5/SL-8 4.2 01:38:06 17° S 01:41:35 49° W 01:46:13 10° NNW
NOSS 2-3 (C) 4.5 01:38:53 10° WSW 01:43:07 52° NW 01:48:19 10° NE
Cosmos 1603 3.8 01:41:52 15° SW 01:46:35 78° WNW 01:52:16 10° NNE
Cosmos 2151 3.7 01:44:56 11° SSE 01:48:45 49° E 01:52:49 10° NNE
Cosmos 1825 3.2 01:47:48 16° SW 01:50:22 34° WNW 01:53:51 10° N
AQUA 4.4 01:46:09 10° NNE 01:50:51 54° E 01:55:17 11° S
Cosmos 1076 Rocket 3.5 01:49:45 16° S 01:53:10 89° WNW 01:57:27 10° N
Cosmos 1437 2.4 01:51:10 10° NNW 01:53:57 59° W 01:55:51 18° S
Cosmos 1242 Rocket 3.2 01:54:15 10° NNW 01:57:37 38° W 02:00:05 16° SSW
Cosmos 540 Rocket 3.6 01:55:00 15° SW 01:59:17 67° WNW 02:04:24 10° NNE
Cosmos 405 Rocket 4.2 01:58:43 12° WSW 02:01:26 24° WNW 02:04:30 10° N
Cosmos 2221 3.5 01:58:26 10° NNW 02:02:14 31° W 02:05:13 14° SW
X-37B 1.8 02:01:04 15° SW 02:02:45 23° S 02:05:22 10° SE
Cosmos 2058 3.9 02:00:33 14° SW 02:03:39 35° WNW 02:07:27 10° N
BREEZE-M DEB (TANK) 1.4 02:02:39 10° W 02:05:20 50° S 02:07:34 10° ESE
IRS-1D 4.5 02:00:40 10° NNE 02:05:34 43° E 02:10:22 10° S
Cosmos 841 Rocket 3.6 02:03:07 14° SW 02:07:36 67° WNW 02:12:44 10° NNE
Cosmos 1553 Rocket 4.2 02:02:35 10° N 02:08:57 74° ENE 02:15:09 10° SSE
SL-16 R/B 4.1 02:04:28 10° W 02:09:01 24° NW 02:13:36 10° NNE
NOSS 2-2 (E) 3.2 02:08:02 15° SSW 02:10:47 65° SE 02:14:42 10° NE
CREW DRAGON DEMO-1 DEB 2.1 02:10:15 10° W 02:12:41 85° S 02:15:08 10° E
Cosmos 2292 Rocket 3.7 02:10:06 10° SSE 02:12:55 41° E 02:15:48 10° NNE
FALCON 9 DEB 2.8 02:10:59 10° WNW 02:14:06 68° SSW 02:17:13 10° ESE
Cosmos 1782 3.3 02:11:41 10° N 02:15:40 61° ENE 02:19:37 10° SSE
Cosmos 2369 Rocket 3.9 02:14:06 10° WNW 02:17:28 16° W 02:20:43 10° SW
Cosmos 1271 Rocket 3.8 02:13:56 10° N 02:17:32 43° ENE 02:21:07 10° SE
USA 229 DEB 4.3 02:11:11 10° WSW 02:17:35 55° NNW 02:24:31 10° NE
USA 229 4.3 02:11:16 10° WSW 02:17:41 55° NW 02:24:37 10° NE
USA 307 3.4 02:14:12 13° SW 02:17:44 45° SSE 02:21:48 10° ENE
USA 281 3.5 02:12:55 10° SE 02:19:27 74° ENE 02:26:02 10° NNW
Cosmos 2026 Rocket 4.1 02:16:00 10° SSW 02:22:12 77° WNW 02:28:37 10° N
Aureole 3 Rocket 3.9 02:20:30 10° NNW 02:24:00 34° W 02:28:33 10° SSW
NOSS 2-2 (C) 3.2 02:21:26 13° SSW 02:24:28 68° SE 02:28:18 10° NE
CZ-4C R/B 3.8 02:23:09 10° SSE 02:26:31 53° ENE 02:29:56 10° N
Helios 1B rocket 2.6 02:22:29 10° N 02:26:32 60° WNW 02:30:26 11° SSW
ERBS 4.4 02:25:09 10° S 02:27:13 16° SE 02:29:18 10° E
USA 215 4.0 02:22:40 10° ENE 02:29:00 56° N 02:35:22 10° WNW
NOSS 3-2 (A) 4.3 02:22:22 10° NW 02:29:36 76° NE 02:38:00 10° SE
Cosmos 1328 Rocket 4.1 02:25:18 10° N 02:29:38 60° ENE 02:33:58 10° SSE
Cosmos 1633 3.3 02:27:25 12° SW 02:30:26 37° WNW 02:33:46 10° N
FALCON 9 DEB 3.1 02:28:01 10° W 02:30:59 43° SSW 02:33:55 10° SE
SL-19 R/B 4.2 02:25:52 10° NNE 02:31:08 81° WNW 02:36:34 10° SSW
Cosmos 2298 Rocket 4.2 02:27:11 10° NNW 02:32:25 58° WSW 02:37:37 10° S
ATLAS 5 CENTAUR R/B 1.5 02:29:34 11° SW 02:33:25 79° SE 02:38:00 10° NE
USA 308 3.2 02:29:31 10° SW 02:33:37 55° SSE 02:37:47 10° ENE
SeaSat 1 3.9 02:30:48 10° NE 02:35:10 31° ESE 02:39:30 10° S
Cosmos 1606 4.4 02:33:32 10° NW 02:36:18 19° W 02:39:02 10° SW
Cosmos 1814 Rocket 4.3 02:32:05 10° SW 02:37:12 57° WNW 02:42:18 10° NNE
NOSS 3-1 (A) 4.4 02:31:47 10° WSW 02:37:19 46° NNW 02:43:55 10° NE
FALCON 9 DEB 3.1 02:34:51 10° WNW 02:37:53 47° SSW 02:40:54 10° SE
FALCON 9 DEB 3.3 02:38:18 10° W 02:41:14 39° SSW 02:44:09 10° SE
ADEOS Rocket 3.5 02:35:20 10° S 02:42:27 58° W 02:48:55 10° NNW
Cosmos 1933 3.9 02:38:58 10° NNW 02:42:51 42° W 02:46:42 10° SSW
IRIDIUM 104 4.4 02:38:02 10° N 02:43:15 71° W 02:48:26 10° S
Cosmos 2150 Rocket 4.3 02:38:56 10° NNW 02:43:57 50° WSW 02:48:59 10° S
USA 290 3.1 02:44:12 10° SW 02:47:14 38° WNW 02:50:17 10° NNE
Meteor 1-28 Rocket 3.5 02:47:12 10° S 02:50:53 49° W 02:54:37 10° NNW
SL-16 R/B 3.5 02:45:39 10° SSW 02:50:57 29° W 02:56:16 10° NW
USA 305 2.9 02:47:09 10° WSW 02:51:23 71° SSE 02:55:38 10° ENE
Lacrosse 4 Rocket 2.7 02:48:36 10° WNW 02:51:41 21° WSW 02:54:44 10° SSW
Cosmos 1125 Rocket 3.7 02:46:45 10° NNW 02:51:51 52° WSW 02:56:57 10° S
DELTA 2 DEB (DPAF) 4.4 02:47:35 10° S 02:51:55 50° W 02:56:16 10° NNW
Cosmos 1151 Rocket 3.0 02:49:04 10° NNW 02:53:19 64° W 02:57:31 10° S
Cosmos 2266 Rocket 4.3 02:51:53 10° S 02:57:56 69° E 03:03:57 10° NNE
